Regional Weather Roundup
Issued by NWS Kansas City/Pleasant Hill, MO

Home | Current Version | Previous Version | Text Only | Print | Product List | Glossary On
Versions: 1 2 3 4 5 6 7 8 9 10 11 12 13 14 15 16 17 18 19 20 21 22 23 24 25 26 27 28 29 30 31 32 33 34 35 36 37 38 39 40 41 42 43 44 45 46 47 48 49 50
000
ASUS43 KEAX 281610
RWREAX

WEATHER ROUNDUP FOR EASTERN KANSAS AND NORTHWEST MISSOURI
NATIONAL WEATHER SERVICE KANSAS CITY/PLEASANT HILL MO
1000 AM CST WED JAN 28 2015

KSZ040-057-103>105-MOZ028-029-037-043-281700-
...KANSAS CITY METROPOLITAN AREA...

CITY           SKY/WX    TMP DP  RH WIND       PRES   REMARKS
K.C. INTL      PTSUNNY   52  36  54 S14       29.90F
K.C. DOWNTOWN  SUNNY     55  35  47 S13G20    29.92S
LEES SUMMIT    SUNNY     52  34  50 S17G23    29.94S
OLATHE - IXD   SUNNY     53  36  52 S13       29.93R
OLATHE - OJC   SUNNY     55  37  50 S12G22    29.92S
LAWRENCE       SUNNY     54  37  52 SE12      29.90F

$$

MOZ001>008-011>017-020>025-030>033-038>040-044>046-053-054-281700-
...NORTHERN AND CENTRAL MISSOURI...

CITY           SKY/WX    TMP DP  RH WIND       PRES   REMARKS
ST. JOSEPH     SUNNY     48  34  58 S12       29.90F
MOSBY          SUNNY     46  32  57 SE8       29.93F
WARRENSBURG    SUNNY     54  36  50 SE13G18   29.97S
WHITEMAN AFB   MOSUNNY   49  37  61 S16G22    29.97F
CLINTON        SUNNY     52  37  58 S14G22    30.00F HAZE
SEDALIA        SUNNY     50  35  56 S17       30.01F
WARSAW         NOT AVBL
MARSHALL       SUNNY     43  37  81 SE16      30.01F
CHILLICOTHE      N/A     40  33  76 SE8G18    29.98F WCI  34
MOBERLY        SUNNY     37  30  75 SE17      30.05F WCI  28
KIRKSVILLE     SUNNY     35  32  88 SE20G28   30.03F WCI  24

$$

MOZ041-047>049-056>058-063>065-088>090-097-281700-
...EASTERN AND SOUTHERN MISSOURI...

CITY           SKY/WX    TMP DP  RH WIND       PRES   REMARKS
ST. LOUIS INTL MOSUNNY   37  27  67 SE17G25   30.22S WCI  27
SPIRIT OF STL  MOSUNNY   37  26  64 SE8       30.20F WCI  31
COLUMBIA       SUNNY     41  32  70 SE16      30.07F WCI  33
JEFFERSON CITY SUNNY     42  31  64 SE12      30.11F
MEXICO         SUNNY     37  34  87 SE16      30.10F WCI  28
HANNIBAL       SUNNY     39  27  60 SE14G20   30.10F WCI  31
ROLLA          SUNNY     40  30  67 S22G29    30.10F WCI  30
LEBANON        SUNNY     46  32  57 S18G28    30.10R
OSAGE BEACH    SUNNY     45  30  57 S17G23    30.09S
SPRINGFIELD    SUNNY     46  34  62 SE23      30.07F
BRANSON        MOSUNNY   46  36  66 SE10      30.14R
JOPLIN         SUNNY     63  36  36 S20       30.02F
WEST PLAINS    SUNNY     39  30  70 S12       30.21S WCI  32

$$

IAZ060-094-KSZ022-034>040-054-083-096-NEZ052-066-093-281700-
...KANSAS...SOUTHEAST NEBRASKA AND IOWA...

CITY           SKY/WX    TMP DP  RH WIND       PRES   REMARKS
TOPEKA         MOSUNNY   55  38  52 S7        29.88F
MANHATTAN      SUNNY     54  38  54 S6        29.84R
EMPORIA        SUNNY     53  38  56 S20       29.87F
CHANUTE        SUNNY     58  39  49 S18       29.96F
WICHITA        MOSUNNY   57  38  48 S15       29.88F
OMAHA          PTSUNNY   38  30  73 SE13      29.85S WCI  30
LINCOLN        MOSUNNY   41  31  67 VRB3      29.81F
FALLS CITY     SUNNY     46  34  62 SE9       29.85F
LAMONI         SUNNY     36  31  82 SE18G25   29.92F WCI  26
DES MOINES     PTSUNNY   33  28  81 SE17      29.94F FOG     WCI  22

$$



USA.gov is the U.S. government's official web portal to all federal, state and local government web resources and services.